TimeCDT,TemperatureF,Dew PointF,Humidity,Sea Level PressureIn,VisibilityMPH,Wind Direction,Wind SpeedMPH,Gust SpeedMPH,PrecipitationIn,Events,Conditions,WindDirDegrees,DateUTC
12:45 AM,69.8,66.2,88,29.79,5.0,North,3.5,-,N/A,,Overcast,360,2012-09-18 05:45:00
12:54 AM,70.0,66.9,90,29.78,5.0,NW,5.8,-,N/A,,Overcast,310,2012-09-18 05:54:00
1:54 AM,69.1,68.0,96,29.79,4.0,WNW,3.5,-,N/A,,Overcast,300,2012-09-18 06:54:00
2:54 AM,69.8,66.2,88,29.78,6.0,NNW,3.5,-,N/A,,Overcast,330,2012-09-18 07:54:00
3:54 AM,69.1,66.0,90,29.77,8.0,West,4.6,-,N/A,,Mostly Cloudy,270,2012-09-18 08:54:00
4:54 AM,68.0,66.2,94,29.79,6.0,WNW,4.6,-,N/A,,Overcast,290,2012-09-18 09:54:00
5:42 AM,69.8,66.2,88,29.80,2.5,NW,8.1,-,0.01,Rain,Rain,310,2012-09-18 10:42:00
5:45 AM,69.8,66.2,88,29.80,5.0,NW,10.4,-,0.01,Rain,Light Rain,310,2012-09-18 10:45:00
5:54 AM,69.1,66.0,90,29.80,6.0,NNW,9.2,-,0.01,,Overcast,330,2012-09-18 10:54:00
6:54 AM,68.0,64.0,87,29.83,8.0,North,15.0,24.2,0.00,Rain,Light Rain,350,2012-09-18 11:54:00
7:04 AM,68.0,64.4,88,29.84,9.0,North,12.7,23.0,0.00,,Overcast,360,2012-09-18 12:04:00
7:54 AM,66.0,60.1,81,29.87,10.0,North,19.6,27.6,0.00,,Overcast,10,2012-09-18 12:54:00
8:05 AM,66.2,60.8,83,29.88,10.0,North,15.0,26.5,N/A,,Overcast,10,2012-09-18 13:05:00
8:54 AM,64.9,60.1,84,29.89,10.0,North,15.0,20.7,N/A,,Overcast,10,2012-09-18 13:54:00
8:58 AM,64.4,60.8,88,29.90,10.0,North,20.7,27.6,N/A,,Overcast,360,2012-09-18 13:58:00
9:29 AM,64.4,55.4,73,29.92,10.0,North,18.4,26.5,N/A,,Overcast,10,2012-09-18 14:29:00
9:51 AM,64.4,55.4,73,29.93,10.0,North,18.4,27.6,N/A,,Mostly Cloudy,10,2012-09-18 14:51:00
9:54 AM,64.9,55.0,70,29.92,10.0,North,17.3,27.6,N/A,,Mostly Cloudy,10,2012-09-18 14:54:00
10:54 AM,68.0,51.1,55,29.94,10.0,North,15.0,24.2,N/A,,Scattered Clouds,10,2012-09-18 15:54:00
11:54 AM,69.1,46.0,44,29.96,10.0,North,18.4,25.3,N/A,,Partly Cloudy,10,2012-09-18 16:54:00
12:54 PM,71.1,46.0,41,29.97,10.0,North,12.7,21.9,N/A,,Partly Cloudy,10,2012-09-18 17:54:00
1:54 PM,72.0,43.0,35,29.97,10.0,North,16.1,-,N/A,,Clear,350,2012-09-18 18:54:00
2:54 PM,73.0,45.0,37,29.96,10.0,NNW,17.3,25.3,N/A,,Clear,340,2012-09-18 19:54:00
3:54 PM,73.0,45.0,37,29.97,10.0,North,15.0,19.6,N/A,,Clear,10,2012-09-18 20:54:00
4:54 PM,72.0,44.1,37,29.97,10.0,NNW,15.0,21.9,N/A,,Clear,340,2012-09-18 21:54:00
5:54 PM,71.1,43.0,36,29.98,10.0,North,13.8,-,N/A,,Clear,10,2012-09-18 22:54:00
6:54 PM,68.0,43.0,40,29.99,10.0,North,9.2,-,N/A,,Clear,10,2012-09-18 23:54:00
7:54 PM,66.0,45.0,47,30.01,10.0,NNE,5.8,-,N/A,,Clear,20,2012-09-19 00:54:00
8:54 PM,64.0,46.9,54,30.03,10.0,NNW,4.6,-,N/A,,Clear,340,2012-09-19 01:54:00
9:54 PM,63.0,46.9,56,30.05,10.0,NE,3.5,-,N/A,,Clear,40,2012-09-19 02:54:00
10:54 PM,62.1,46.9,58,30.06,10.0,NE,4.6,-,N/A,,Clear,50,2012-09-19 03:54:00
11:54 PM,57.9,48.9,72,30.07,10.0,Calm,Calm,-,N/A,,Clear,0,2012-09-19 04:54:00